Location: Norderney
(53.7000°N, 7.1500°E)
Time: 08:10:20
(UTC+02:00)

X-37B - Pass Details

Date: 27 June 2021
Orbit: 383 x 392 km, 45.0° (Epoch: 01 July)

Event Time Altitude Azimuth Distance (km) Brightness Sun altitude
Rises 00:24:01 0° 251° (WSW) 2,257 4.4 -11.5°
Reaches altitude 10° 00:26:36 10° 229° (SW) 1,402 3.2 -11.6°
Enters shadow 00:28:10 16° 200° (SSW) 1,112 2.4 -11.7°
